2017-008BR

Last updated on Wed Mar 01 2017 00:15:03 GMT+0000 (Coordinated Universal Time)

1 42011U 17008BR 17059.08919826 .00001680 00000-0 76252-4 0 9990 2 42011 97.5103 120.7074 0006618 230.1609 129.9037 15.22192948 1126
UTC large
Height (km)
Speed (km/s)
/
Latitude / Longitude
Inclination (degrees)
Orbital Period (minutes)
Azimuth
Elevation
Range (km)
Doppler Factor

Next 0 passes for location: London (51.5072 / 0.1276)

Sorry there are no passes over London.
2017-008BR